Regional Weather Roundup
Issued by NWS

Home | Current Version | Previous Version | Graphics & Text | Print | Product List | Glossary On
Versions: 1 2 3 4 5 6 7 8 9 10 11 12 13 14 15 16 17 18 19 20 21 22 23 24 25 26 27 28 29 30 31 32 33 34 35 36 37 38 39 40 41 42 43 44 45 46 47 48 49 50
000
ASUS43 KDTX 300210
RWRMI
MICHIGAN HOURLY REGIONAL WEATHER ROUNDUP
NATIONAL WEATHER SERVICE DETROIT/PONTIAC MI
1000 PM EDT FRI JUL 29 2016

NOTE: "FAIR" INDICATES FEW OR NO CLOUDS BELOW 12,000 FEET WITH NO
SIGNIFICANT WEATHER AND/OR OBSTRUCTION TO VISIBILITY.

MIZ047>049-052>055-059>063-066>070-074>076-081>083-300300-
SOUTHEAST LOWER MICHIGAN

CITY           SKY/WX    TMP DP  RH WIND       PRES   REMARKS
ADRIAN         CLOUDY    73  65  75 E8        29.98S
ALMA           CLOUDY    67  61  81 N7        30.03S
ANN ARBOR      PTCLDY    74  65  73 NE6       29.98S
BAD AXE        CLOUDY    66  57  74 NE3       30.04S
CARO           MOCLDY    66  57  72 CALM      30.02S
DETROIT CITY   MOCLDY    73  57  57 NE8       29.99R
DETROIT        CLOUDY    75  58  55 NE9       29.98S
FLINT          PTCLDY    72  56  57 NE10      30.01S
GROSSE ILE     CLOUDY    73  62  67 NE9       29.97R
HILLSDALE      RAIN      71  66  84 E5        29.98S
HOWELL         PTCLDY    69  55  60 NE5       30.01R

CITY           SKY/WX    TMP DP  RH WIND       PRES   REMARKS
JACKSON        MOCLDY    72  67  84 NE7       29.99R
LAMBERTVILLE   CLOUDY    74  69  81 NE5       29.96F
LANSING        CLOUDY    70  58  65 NE8       30.00S
LAPEER         FAIR      66  55  67 N5        30.02S
MASON          CLOUDY    69  58  68 NE3       30.00R
MONROE         CLOUDY    72  67  85 NE6       29.96S
MT. CLEMENS    MOCLDY    70  59  67 N5        29.98R
PONTIAC        MOCLDY    70  55  59 NE9       30.00R
PORT HOPE        N/A     71  61  70 NE18      30.02R
PORT HURON     PTCLDY    68  61  77 N6        30.00R
TRI CITIES     CLOUDY    67  59  75 NE8       30.03S
MIDLAND        FAIR      65  58  77 CALM      30.03S
TROY           MOCLDY    74  53  47 NE8       30.02R
SAGINAW HB     CLOUDY    66  59  77 NE7       30.02S
$$
MIZ043>046-050>051-056>058-064>065-071>073-077>080-300300-
SOUTHWEST LOWER MICHIGAN

CITY           SKY/WX    TMP DP  RH WIND       PRES   REMARKS
BATTLE CREEK   MOCLDY    69  61  75 NE10      29.98R
BENTON HARBOR  LGT RAIN  70  67  90 NE5       29.95S
BIG RAPIDS     PTCLDY    67  62  81 E5        30.04R
COLDWATER      CLOUDY    72  68  87 SE5       29.98R
FREMONT        FAIR      68  57  67 E8        30.01R
HOLLAND        CLOUDY    73  63  70 NE8       29.99R
GRAND RAPIDS   MOCLDY    69  57  65 NE12      30.00R
IONIA          MOCLDY    67  56  68 NE12G17   30.00R
KALAMAZOO      MOCLDY    73  59  61 NE5       29.97R
LUDINGTON      FOG       66  64  91 CALM      30.01R VSB 1/2
MARSHALL       CLOUDY    72  63  73 CALM      29.97S
MOUNT PLEASANT MOCLDY    67  56  69 E6        30.04R
MUSKEGON       CLOUDY    72  57  59 E8        30.00R
SOUTH HAVEN    CLOUDY    69  67  94 NE5       29.97R
$$
MIZ016>042-300300-
NORTHERN LOWER MICHIGAN

CITY           SKY/WX    TMP DP  RH WIND       PRES   REMARKS
ALPENA         CLEAR     63  56  78 CALM      30.08R
BEAVER ISLAND  CLEAR     62  56  82 CALM      30.06S
BELLAIRE       CLEAR     66  52  60 CALM      30.05R
CADILLAC       CLOUDY    69  58  69 E7        30.05R
CHARLEVOIX     CLEAR     71  50  46 E7        30.08R
FRANKFORT      CLOUDY    69  56  63 N3        30.02S
GAYLORD        CLOUDY    67  49  52 CALM      30.08R
GRAYLING       CLOUDY    65  49  56 NE6       30.08S
HARBOR SPRINGS CLEAR     67  52  59 NE5       30.06R
HOUGHTON LAKE  CLOUDY    62  53  72 E5        30.07R
MANISTEE       MOCLDY    70  60  70 NE3       30.01R
OSCODA         CLOUDY    63  55  75 N7        30.05R
PELLSTON       CLEAR     60  53  77 CALM      30.07R
ROGERS CITY    CLEAR     62  53  74 CALM      30.08R
TRAVERSE CITY  CLOUDY    75  53  46 E8        30.01R
$$
MIZ007>008-015-300300-
EASTERN UPPER MICHIGAN

CITY           SKY/WX    TMP DP  RH WIND       PRES   REMARKS
KINROSS        CLEAR     63  54  72 W7        30.08R
MACKINAC ISLAN CLEAR     63  57  81 CALM      30.07S
NEWBERRY       CLEAR     63  55  77 CALM      30.08S
S. S. MARIE    CLEAR     67  55  65 NW3       30.07R
MUNISING         N/A     64  58  80 CALM      30.08R
$$
MIZ004>006-011>014-085-300300-
CENTRAL UPPER MICHIGAN

CITY           SKY/WX    TMP DP  RH WIND       PRES   REMARKS
MANISTIQUE     CLEAR     60  56  85 CALM      30.06S
ESCANABA       CLEAR     64  55  72 CALM      30.05S
MENOMINEE      CLEAR    N/A N/A N/A NE6       30.05S
$$
MIZ001>003-009>011-084-300300-
WESTERN UPPER MICHIGAN

CITY           SKY/WX    TMP DP  RH WIND       PRES   REMARKS
IRON MOUNTAIN  PTCLDY    68  53  58 E3        30.06R
HOUGHTON       CLEAR     59  51  75 E3        30.08S
COPPER HARBOR    N/A     63  56  78 W3        30.07S
IRONWOOD       CLEAR     63  59  88 CALM      30.05S
$$

ABBREVIATIONS USED IN REMARKS
   TC - TEMPERATURE IN CELSIUS
  WCI - WIND CHILL INDEX
   HX - HEAT INDEX
  VSB - VISIBILITY




USA.gov is the U.S. government's official web portal to all federal, state and local government web resources and services.